TimeEST,TemperatureF,Dew PointF,Humidity,Sea Level PressureIn,VisibilityMPH,Wind Direction,Wind SpeedMPH,Gust SpeedMPH,PrecipitationIn,Events,Conditions,WindDirDegrees,DateUTC
12:56 AM,45.0,41.0,86,30.47,10.0,North,6.9,-,N/A,,Mostly Cloudy,350,2013-11-05 05:56:00
1:56 AM,46.9,42.1,83,30.45,10.0,North,8.1,-,N/A,,Overcast,360,2013-11-05 06:56:00
2:56 AM,48.0,43.0,83,30.43,10.0,North,6.9,-,N/A,,Overcast,350,2013-11-05 07:56:00
3:56 AM,50.0,44.1,80,30.43,10.0,North,6.9,-,N/A,,Overcast,360,2013-11-05 08:56:00
4:56 AM,50.0,45.0,83,30.43,10.0,North,6.9,-,N/A,,Overcast,10,2013-11-05 09:56:00
5:56 AM,51.1,46.0,83,30.44,10.0,North,9.2,-,0.00,,Overcast,350,2013-11-05 10:56:00
6:56 AM,51.1,46.0,83,30.45,10.0,North,11.5,-,N/A,,Overcast,10,2013-11-05 11:56:00
7:56 AM,54.0,48.0,80,30.46,10.0,North,11.5,19.6,N/A,,Overcast,10,2013-11-05 12:56:00
8:56 AM,57.0,48.9,74,30.45,10.0,NNE,15.0,-,N/A,,Overcast,20,2013-11-05 13:56:00
9:56 AM,62.1,52.0,70,30.46,10.0,NNE,10.4,-,N/A,,Overcast,20,2013-11-05 14:56:00
10:56 AM,66.9,54.0,63,30.45,10.0,NE,11.5,-,N/A,,Mostly Cloudy,50,2013-11-05 15:56:00
11:56 AM,70.0,55.0,59,30.42,10.0,ENE,11.5,-,N/A,,Clear,60,2013-11-05 16:56:00
12:56 PM,70.0,55.9,61,30.40,10.0,NE,10.4,-,N/A,,Overcast,50,2013-11-05 17:56:00
1:56 PM,70.0,55.9,61,30.40,10.0,East,8.1,-,N/A,,Overcast,80,2013-11-05 18:56:00
2:56 PM,70.0,55.0,59,30.40,10.0,ENE,8.1,-,N/A,,Overcast,60,2013-11-05 19:56:00
3:56 PM,69.1,53.1,57,30.40,10.0,ENE,11.5,-,N/A,,Overcast,60,2013-11-05 20:56:00
4:56 PM,66.9,52.0,59,30.40,10.0,ENE,15.0,-,N/A,,Overcast,60,2013-11-05 21:56:00
5:56 PM,64.0,53.1,67,30.41,10.0,ENE,10.4,-,N/A,,Clear,60,2013-11-05 22:56:00
6:56 PM,61.0,53.1,75,30.43,10.0,NE,9.2,-,N/A,,Clear,50,2013-11-05 23:56:00
7:56 PM,60.1,53.1,78,30.43,10.0,NE,8.1,-,N/A,,Clear,40,2013-11-06 00:56:00
8:56 PM,57.9,51.1,78,30.42,10.0,NNE,8.1,-,N/A,,Clear,30,2013-11-06 01:56:00
9:56 PM,55.9,50.0,80,30.42,10.0,North,9.2,-,N/A,,Clear,10,2013-11-06 02:56:00
10:56 PM,54.0,48.9,83,30.41,10.0,North,5.8,-,N/A,,Clear,360,2013-11-06 03:56:00
11:56 PM,54.0,50.0,86,30.40,10.0,North,5.8,-,N/A,,Clear,10,2013-11-06 04:56:00